Regional Weather Roundup
Issued by NWS

Home | Current Version | Previous Version | Text Only | Print | Product List | Glossary Off
Versions: 1 2 3 4 5 6 7 8 9 10 11 12 13 14 15 16 17 18 19 20 21 22 23 24 25 26 27 28 29 30 31 32 33 34 35 36 37 38 39 40 41 42 43 44 45 46 47 48 49 50

000
ASUS45 KBOU 091210
RWRCO

WEATHER ROUNDUP FOR COLORADO
NATIONAL WEATHER SERVICE DENVER/BOULDER CO
600 AM MDT WED JUL 09 2014

NOTE: "FAIR" INDICATES FEW OR NO CLOUDS BELOW 12000 FEET WITH NO
SIGNIFICANT WEATHER AND/OR OBSTRUCTIONS TO VISIBILITY.

COZ001>005-013-030-031-091300-
...NORTHWEST COLORADO...

CITY           SKY/WX    TMP DP  RH WIND       PRES   REMARKS
CRAIG          CLEAR     50  44  80 E5        30.22R
HAYDEN         CLEAR     55  39  54 SE12      30.24R
MEEKER         CLEAR     53  41  63 CALM      30.25R
MOUNT WERNER   CLEAR     59  28  31 SW12      30.54S
STEAMBOAT SPGS CLEAR     51  41  69 CALM      30.27R
WALDEN         CLEAR     43  37  81 E6        30.34S
$$

COZ006>008-011-091300-
...WEST CENTRAL VALLEYS...

CITY           SKY/WX    TMP DP  RH WIND       PRES   REMARKS
GRAND JUNCTION MOCLDY    72  47  40 E9        30.15R
MONTROSE       MOCLDY    64  45  49 SE8       30.26R
EAGLE          PTCLDY    50  45  81 E6        30.31R
RIFLE          PTCLDY    60  40  47 E5        30.21R
DELTA          MOCLDY    69  45  42 NE6       30.21R
NUCLA          MOCLDY    61  45  55 E7        30.31R
$$

COZ017>023-064>068-091300-
...SOUTHWEST COLORADO...

CITY           SKY/WX    TMP DP  RH WIND       PRES   REMARKS
DURANGO        CLEAR     50  47  89 E5        30.35R
CORTEZ         CLEAR     55  50  83 CALM      30.28R
PAGOSA SPRINGS CLEAR     49  45  87 CALM      30.42S
TELLURIDE      PTCLDY    55  45  67 SE5       30.47S
WOLF CREEK PAS NOT AVBL
$$

COZ009-010-012-014-032>034-037-058>063-091300-
...CENTRAL COLORADO...

CITY           SKY/WX    TMP DP  RH WIND       PRES   REMARKS
ASPEN          PTCLDY    52  40  63 CALM      30.36R
BUENA VISTA    PTCLDY    49  41  72 W3        30.39R
COPPER MTN     PTCLDY    52  34  50 SW9       30.66S
BERTHOUD PASS  FAIR      45  32  61 NW20      30.68R
COTTONWOOD PAS PTCLDY    59  36  41 W9        30.50R
GUNNISON       NOT AVBL
KREMMLING      CLEAR     46  37  71 CALM      30.35S
LEADVILLE      PTCLDY    39  34  82 N3        30.50S
MONARCH PASS   PTCLDY    45  36  70 W23       30.74S
SALIDA         PTCLDY    56  46  67 N9        30.42S
SUNLIGHT       PTCLDY    52  39  62 CALM      30.58S
WILKERSON PASS PTCLDY    50  36  57 W12G18    30.61S
$$

COZ069>075-091300-
...SAN LUIS VALLEY/SANGRE DE CRISTO MOUNTAINS...

CITY           SKY/WX    TMP DP  RH WIND       PRES   REMARKS
ALAMOSA        MOCLDY    48  45  89 CALM      30.39R
LA VETA PASS   MOCLDY    45  37  76 SW12G24   30.50R
SAGUACHE       NOT AVBL
$$

COZ035-036-038>040-091300-
...NORTHERN COLORADO FRONT RANGE...

CITY           SKY/WX    TMP DP  RH WIND       PRES   REMARKS
DENVER INTL AP MOCLDY    61  51  70 SW10      30.13S
DMNS CITY PARK   N/A     62  55  75 S3        30.12F
AURORA         PTCLDY    58  52  80 SW8       30.15F
FRONT RANGE AP NOT AVBL
ERIE MUNI ARPT PTCLDY    58  56  92 CALM      30.10F
BOULDER MUN AP PTCLDY    61  55  82 CALM      30.11F
CENTENNIAL     PTCLDY    63  46  54 SW9       30.16F
BROOMFIELD     PTCLDY    61  54  77 SW5       30.14F
FORT COLLINS   CLEAR     57  54  88 NW3       30.11S
LONGMONT       CLEAR     58  55  89 CALM      30.12S
$$

COZ041-046-047-076>085-087-088-091300-
...PIKES PEAK/PALMER DIVIDE AND SOUTHERN FOOTHILLS...

CITY           SKY/WX    TMP DP  RH WIND       PRES   REMARKS
COLO. SPRINGS  MOCLDY    53  48  83 N9        30.22S
A. F. ACADEMY  CLEAR     50  47  90 N5        30.24R
ELLICOTT       NOT AVBL
FALCON         CLEAR     51  47  84 CALM      30.26S
FORT CARSON    PTCLDY    54  51  88 N7        30.18F
LIMON          CLEAR     52  50  93 S3        30.17S
MONUMENT HILL  CLEAR     50  43  76 SW8       30.25R
TRINIDAD       MOCLDY    57  44  62 W7        30.20S
$$

COZ042>045-048>051-090-091-091300-
...NORTHEAST COLORADO...

CITY           SKY/WX    TMP DP  RH WIND       PRES   REMARKS
GREELEY ARPT   CLEAR     55  48  76 CALM      30.08F
AKRON          CLEAR     61  53  75 S9        30.10S
BURLINGTON     PTCLDY    60  53  77 S12       30.11F
WRAY           CLEAR     63  55  73 CALM      30.09S
STERLING       CLEAR     61  59  94 S8        30.06S
HOLYOKE        CLEAR     59  55  88 S8        30.08S
FORT MORGAN    CLEAR     56  53  89 SW3       30.08F
$$

COZ086-089-092>099-091300-
...SOUTHEAST COLORADO...

CITY           SKY/WX    TMP DP  RH WIND       PRES   REMARKS
PUEBLO         PTCLDY    57  55  93 SW5       30.13R
LA JUNTA       CLEAR     65  52  62 SE5       30.10F
LAMAR          CLEAR     68  55  63 S12       30.09S
SPRINGFIELD      N/A     61  55  81 S9        30.16S
$$


USA.gov is the U.S. government's official web portal to all federal, state and local government web resources and services.